Location: Chervonnoye
(48.6000°N, 34.4000°E)
Time: 20:18:40
(UTC+00:00)

RS-44 - Pass Details

Date: 03 December 2021
Orbit: 1175 x 1510 km, 82.5° (Epoch: 19 January)

Event Time Altitude Azimuth Distance (km) Brightness Sun altitude
Rises 15:53:00 0° 148° (SSE) 4,112 ? -19.8°
Reaches altitude 10° 15:56:07 10° 137° (SE) 3,124 ? -20.3°
Enters shadow 15:57:33 15° 129° (SE) 2,724 ? -20.5°
